Home   Weather   Sidon   Past weeks

Flag for Lebanon Past Weather in Sidon, Lebanon — Yesterday and Last 2 Weeks

Now
66 °F

Clear.


Feels Like: 66 °F
Forecast: 62 / 76 °F
Wind: 3 mph from West

Location: Beirut Airport

Current Time: Apr 28, 2017 at 9:13:33 pm

Latest Report: Apr 28, 2017 at 8:00 pm


Visibility: 5 mi

Pressure: 29.98 "Hg

Humidity: 88%

Dew Point: 63 °F

Location of SidonLocation

Past Weather in Sidon — Graph

°F

Sidon Temperature Yesterday

Maximum temperature yesterday: 72 °F (at 12:00 am)
Minimum temperature yesterday: 63 °F (at 6:00 am)
Average temperature yesterday: 68 °F

High & Low Weather Summary for the Past Weeks

 TemperatureHumidityPressure
High93 °F (Apr 22, 4:00 pm)88% (Apr 14, 11:00 pm)30.18 "Hg (Apr 14, 11:00 pm)
Low59 °F (Apr 25, 6:00 am)15% (Apr 22, 5:00 pm)29.68 "Hg (Apr 22, 6:00 pm)
Average68 °F63%30.02 "Hg
* Reported Apr 13 8:00 pm — Apr 28 8:00 pm, Sidon, Weather by CustomWeather, © 2017

Note: Actual official high and low records may vary slightly from our data, if they occured in-between our weather recording intervals... More about our weather records

Advertising

Sidon Weather History for the Previous 24 Hours

Scroll right to see more
 ConditionsComfort  
Time TempWeatherWind HumidityBarometerVisibility
8:00 pm
Fri, Apr 28
66 °FClear.3 mph88%29.98 "Hg5 mi
7:00 pm68 °FPassing clouds.5 mph78%29.98 "Hg5 mi
6:00 pm68 °FPassing clouds.7 mph78%29.98 "Hg4 mi
5:00 pm70 °FPassing clouds.10 mph69%29.98 "Hg4 mi
4:00 pm70 °FPassing clouds.10 mph73%29.98 "Hg4 mi
3:00 pm70 °FPassing clouds.10 mph73%30.01 "Hg4 mi
2:00 pm70 °FPassing clouds.10 mph73%30.01 "Hg4 mi
1:00 pm70 °FPassing clouds.12 mph73%30.01 "Hg4 mi
12:00 pm72 °FPassing clouds.13 mph69%30.01 "Hg4 mi
11:00 am70 °FPassing clouds.14 mph78%30.01 "Hg4 mi
9:00 am68 °FScattered clouds.14 mph73%30.01 "Hg4 mi
8:00 am66 °FScattered clouds.6 mph73%29.98 "Hg4 mi
7:00 am64 °FScattered clouds.5 mph73%29.98 "Hg4 mi
6:00 am64 °FScattered clouds.2 mph78%29.98 "Hg4 mi
5:00 am64 °FFog.6 mph78%29.98 "Hg3 mi
4:00 am64 °FFog.6 mph83%29.98 "Hg3 mi
3:00 am66 °FFog.7 mph83%29.98 "Hg3 mi
2:00 am66 °FFog.9 mph83%29.98 "Hg3 mi
1:00 am66 °FFog.7 mph88%29.98 "Hg3 mi
12:00 am68 °FFog.6 mph83%29.98 "Hg3 mi
11:00 pm
Thu, Apr 27
68 °FFog.8 mph83%30.01 "Hg3 mi
10:00 pm68 °FFog.5 mph83%29.98 "Hg3 mi
9:00 pm68 °FPassing clouds.5 mph88%29.98 "Hg4 mi
Weather by CustomWeather, © 2017

See weather overviewHow to use our weather pages